TimeCEST,TemperatureF,Dew PointF,Humidity,Sea Level PressureIn,VisibilityMPH,Wind Direction,Wind SpeedMPH,Gust SpeedMPH,PrecipitationIn,Events,Conditions,WindDirDegrees,DateUTC
12:00 AM,60.8,59.0,94,29.77,6.2,South,4.6,-,N/A,Rain-Thunderstorm,Light Thunderstorms and Rain,170,2013-06-10 22:00:00
12:30 AM,60.8,59.0,94,29.77,6.2,South,2.3,-,N/A,Thunderstorm,Mostly Cloudy,170,2013-06-10 22:30:00
1:00 AM,60.8,59.0,94,29.77,6.2,South,1.2,-,N/A,,Scattered Clouds,190,2013-06-10 23:00:00
1:30 AM,59.0,41.0,51,29.77,6.2,WSW,4.6,-,N/A,,Scattered Clouds,250,2013-06-10 23:30:00
2:00 AM,59,58,96,29.77,6,NNW,2.2,,,,Partly Cloudy,330,2013-06-11 00:00:00
2:00 AM,59.0,59.0,100,29.77,6.2,NW,2.3,-,N/A,,Scattered Clouds,320,2013-06-11 00:00:00
2:30 AM,59.0,59.0,100,29.77,6.2,Calm,Calm,-,N/A,,Scattered Clouds,0,2013-06-11 00:30:00
3:00 AM,59.0,57.2,94,29.77,6.2,Calm,Calm,-,N/A,,Partly Cloudy,0,2013-06-11 01:00:00
3:30 AM,59.0,59.0,100,29.77,5.0,Calm,Calm,-,N/A,Rain,Light Rain,0,2013-06-11 01:30:00
4:00 AM,59.0,57.2,94,29.77,6.2,West,5.8,-,N/A,Rain,Light Rain,270,2013-06-11 02:00:00
4:30 AM,59.0,57.2,94,29.77,6.2,West,3.5,-,N/A,Rain,Light Rain,260,2013-06-11 02:30:00
5:00 AM,58,57,97,29.79,6,WSW,6.7,,,Rain,Light Rain,240,2013-06-11 03:00:00
5:00 AM,59.0,57.2,94,29.77,6.2,WSW,3.5,-,N/A,Rain,Light Rain,250,2013-06-11 03:00:00
5:30 AM,57.2,57.2,100,29.77,6.2,SSW,3.5,-,N/A,Rain,Light Rain,210,2013-06-11 03:30:00
6:00 AM,57.2,57.2,100,29.77,6.2,Calm,Calm,-,N/A,Rain,Light Rain,0,2013-06-11 04:00:00
6:30 AM,59.0,57.2,94,29.80,6.2,Calm,Calm,-,N/A,Rain,Light Rain,0,2013-06-11 04:30:00
7:00 AM,59.0,57.2,94,29.80,6.2,South,2.3,-,N/A,,Mostly Cloudy,190,2013-06-11 05:00:00
7:30 AM,59.0,57.2,94,29.80,6.2,SSW,1.2,-,N/A,,Mostly Cloudy,210,2013-06-11 05:30:00
8:00 AM,60,58,92,29.80,5,SSW,2.2,,,Rain,Light Rain,210,2013-06-11 06:00:00
8:00 AM,60.8,59.0,94,29.80,5.0,Calm,Calm,-,N/A,Rain,Light Rain,0,2013-06-11 06:00:00
8:30 AM,60.8,59.0,94,29.80,5.0,Calm,Calm,-,N/A,,Mostly Cloudy,0,2013-06-11 06:30:00
9:00 AM,60.8,57.2,88,29.80,6.2,Calm,Calm,-,N/A,,Mostly Cloudy,0,2013-06-11 07:00:00
9:30 AM,62.6,59.0,88,29.80,6.2,SW,1.2,-,N/A,,Mostly Cloudy,230,2013-06-11 07:30:00
10:00 AM,64.4,60.8,88,29.80,6.2,Calm,Calm,-,N/A,,Scattered Clouds,0,2013-06-11 08:00:00
10:30 AM,64.4,59.0,83,29.80,6.2,Variable,1.2,-,N/A,,Scattered Clouds,0,2013-06-11 08:30:00
11:00 AM,63,59,84,29.82,9,North,8.9,,,,Partly Cloudy,0,2013-06-11 09:00:00
11:00 AM,62.6,59.0,88,29.80,6.2,North,9.2,-,N/A,,Mostly Cloudy,10,2013-06-11 09:00:00
11:30 AM,62.6,59.0,88,29.83,6.2,NNE,9.2,-,N/A,,Mostly Cloudy,20,2013-06-11 09:30:00
12:00 PM,60.8,59.0,94,29.83,6.2,NNE,6.9,-,N/A,Rain-Thunderstorm,Light Thunderstorms and Rain,30,2013-06-11 10:00:00
12:30 PM,60.8,60.8,100,29.83,4.3,NNE,9.2,-,N/A,Rain-Thunderstorm,Light Thunderstorms and Rain,20,2013-06-11 10:30:00
1:00 PM,60.8,59.0,94,29.83,4.3,NNE,10.4,-,N/A,Rain-Thunderstorm,Light Rain Showers,20,2013-06-11 11:00:00
1:30 PM,60.8,59.0,94,29.86,4.3,North,4.6,-,N/A,Rain-Thunderstorm,Light Thunderstorms and Rain,350,2013-06-11 11:30:00
2:00 PM,59,58,93,29.87,4,NW,8.9,,,Rain-Thunderstorm,Thunderstorms and Rain,320,2013-06-11 12:00:00
2:00 PM,59.0,57.2,94,29.86,4.3,NNW,6.9,-,N/A,Rain-Thunderstorm,Light Rain Showers,330,2013-06-11 12:00:00
2:30 PM,59.0,57.2,94,29.86,4.3,NW,8.1,-,N/A,Rain-Thunderstorm,Light Thunderstorms and Rain,320,2013-06-11 12:30:00
3:00 PM,59.0,57.2,94,29.89,4.3,North,5.8,-,N/A,Rain,Light Rain Showers,350,2013-06-11 13:00:00
3:30 PM,59.0,57.2,94,29.86,5.0,NNW,10.4,-,N/A,Rain,Light Rain,330,2013-06-11 13:30:00
4:00 PM,59.0,57.2,94,29.89,6.2,NNW,11.5,-,N/A,Rain,Light Rain,340,2013-06-11 14:00:00
4:30 PM,59.0,55.4,88,29.89,6.2,NNW,11.5,-,N/A,Rain,Light Rain,340,2013-06-11 14:30:00
5:00 PM,58,55,86,29.92,12,NNW,15.7,,,Rain,Light Rain,330,2013-06-11 15:00:00
5:00 PM,57.2,55.4,94,29.89,6.2,NNW,10.4,-,N/A,Rain,Light Rain,340,2013-06-11 15:00:00
5:30 PM,57.2,55.4,94,29.92,6.2,NNW,9.2,-,N/A,,Mostly Cloudy,330,2013-06-11 15:30:00
6:00 PM,57.2,55.4,94,29.92,6.2,NNW,10.4,-,N/A,,Mostly Cloudy,340,2013-06-11 16:00:00
6:30 PM,57.2,55.4,94,29.92,6.2,NNW,9.2,-,N/A,,Mostly Cloudy,340,2013-06-11 16:30:00
7:00 PM,57.2,55.4,94,29.92,6.2,NNW,8.1,-,N/A,,Mostly Cloudy,340,2013-06-11 17:00:00
7:30 PM,57.2,53.6,88,29.92,6.2,NNW,11.5,-,N/A,,Mostly Cloudy,330,2013-06-11 17:30:00
8:00 PM,56,54,90,29.96,19,NNW,8.9,,,,Partly Cloudy,330,2013-06-11 18:00:00
8:00 PM,57.2,53.6,88,29.92,6.2,NNW,6.9,-,N/A,,Mostly Cloudy,330,2013-06-11 18:00:00
8:30 PM,57.2,53.6,88,29.95,6.2,NNW,8.1,-,N/A,,Mostly Cloudy,340,2013-06-11 18:30:00
9:00 PM,57.2,51.8,82,29.98,6.2,NW,3.5,-,N/A,Rain,Light Rain,310,2013-06-11 19:00:00
9:30 PM,55.4,51.8,88,29.98,5.0,WNW,4.6,-,N/A,Rain,Light Rain,290,2013-06-11 19:30:00
10:00 PM,55.4,51.8,88,30.01,5.0,NW,2.3,-,N/A,Rain,Light Rain,310,2013-06-11 20:00:00
10:30 PM,53.6,33.8,47,30.01,6.2,West,3.5,-,N/A,Rain,Light Rain,280,2013-06-11 20:30:00
11:00 PM,55,53,90,30.01,19,West,4.5,,,Rain,Light Rain,270,2013-06-11 21:00:00
11:00 PM,55.4,51.8,88,30.01,6.2,WNW,2.3,-,N/A,,Mostly Cloudy,290,2013-06-11 21:00:00
11:30 PM,53.6,53.6,100,30.01,6.2,SW,4.6,-,N/A,,Mostly Cloudy,220,2013-06-11 21:30:00